Hourly Weather Rumianka

Today, 13 April, Tuesday

Time Temperature Precipitation Wind Pressure Humidity
00:00 +2°C° 0 mm 6 mps 752 mmHg 80%
01:00 +2°C° 0 mm 6 mps 752 mmHg 81%
02:00 +1°C° 0.2 mm 6 mps 752 mmHg 84%
03:00 +1°C° 0.2 mm 6 mps 752 mmHg 88%
04:00 -1°C° 0.2 mm 6 mps 753 mmHg 91%
05:00 -1°C° 0.9 mm 6 mps 753 mmHg 93%
06:00 -1°C° 0.9 mm 6 mps 753 mmHg 94%
07:00 -2°C° 0.9 mm 6 mps 753 mmHg 96%
08:00 -1°C° 0.9 mm 6 mps 754 mmHg 95%
09:00 0°C° 0.9 mm 5 mps 754 mmHg 94%
10:00 0°C° 0.9 mm 5 mps 754 mmHg 94%
11:00 +1°C° 0.1 mm 5 mps 754 mmHg 86%
12:00 +3°C° 0.1 mm 5 mps 754 mmHg 79%
13:00 +5°C° 0.1 mm 5 mps 754 mmHg 71%
14:00 +5°C° 0 mm 5 mps 753 mmHg 70%
15:00 +5°C° 0 mm 4 mps 753 mmHg 69%
16:00 +5°C° 0 mm 4 mps 753 mmHg 68%
17:00 +5°C° 0 mm 3 mps 752 mmHg 70%
18:00 +4°C° 0 mm 3 mps 752 mmHg 72%
19:00 +5°C° 0 mm 2 mps 752 mmHg 74%
20:00 +4°C° 0 mm 2 mps 752 mmHg 75%
21:00 +4°C° 0 mm 2 mps 752 mmHg 76%
22:00 +4°C° 0 mm 2 mps 752 mmHg 76%
23:00 +2°C° 0 mm 3 mps 752 mmHg 75%

Tomorrow, 14 April, Wednesday

Time Temperature Precipitation Wind Pressure Humidity
00:00 +2°C° 0 mm 3 mps 752 mmHg 74%
01:00 +2°C° 0 mm 3 mps 752 mmHg 73%
02:00 +2°C° 0 mm 3 mps 752 mmHg 74%
03:00 +1°C° 0 mm 3 mps 752 mmHg 75%
04:00 +1°C° 0 mm 3 mps 752 mmHg 76%
05:00 +1°C° 0 mm 3 mps 752 mmHg 76%
06:00 +2°C° 0 mm 3 mps 752 mmHg 76%
07:00 +1°C° 0 mm 4 mps 752 mmHg 76%
08:00 +1°C° 0 mm 4 mps 752 mmHg 73%
09:00 +3°C° 0 mm 4 mps 752 mmHg 69%
10:00 +2°C° 0 mm 5 mps 752 mmHg 66%
11:00 +2°C° 0.1 mm 5 mps 751 mmHg 67%
12:00 +2°C° 0.1 mm 5 mps 751 mmHg 68%
13:00 +2°C° 0.1 mm 5 mps 751 mmHg 69%
14:00 +2°C° 0.3 mm 5 mps 751 mmHg 75%
15:00 +2°C° 0.3 mm 5 mps 751 mmHg 80%
16:00 +2°C° 0.3 mm 5 mps 751 mmHg 86%
17:00 +1°C° 0.4 mm 5 mps 751 mmHg 89%
18:00 +1°C° 0.4 mm 5 mps 751 mmHg 92%
19:00 +1°C° 0.4 mm 5 mps 751 mmHg 96%
20:00 0°C° 0.3 mm 5 mps 751 mmHg 96%
21:00 0°C° 0.3 mm 5 mps 751 mmHg 96%
22:00 0°C° 0.3 mm 5 mps 750 mmHg 96%
23:00 -1°C° 0.5 mm 6 mps 750 mmHg 97%

Day after tomorrow, 15 April, Thursday

Time Temperature Precipitation Wind Pressure Humidity
00:00 -1°C° 0.5 mm 6 mps 750 mmHg 97%
01:00 -2°C° 0.5 mm 6 mps 750 mmHg 97%
02:00 -2°C° 0.7 mm 6 mps 749 mmHg 97%
03:00 -2°C° 0.7 mm 6 mps 749 mmHg 97%
04:00 -2°C° 0.7 mm 6 mps 749 mmHg 97%
05:00 -1°C° 0.6 mm 5 mps 749 mmHg 97%
06:00 0°C° 0.6 mm 5 mps 749 mmHg 97%
07:00 0°C° 0.6 mm 5 mps 749 mmHg 97%
08:00 0°C° 0.4 mm 5 mps 749 mmHg 98%
09:00 0°C° 0.4 mm 4 mps 749 mmHg 98%
10:00 0°C° 0.4 mm 4 mps 749 mmHg 98%
11:00 0°C° 0.4 mm 4 mps 749 mmHg 98%
12:00 0°C° 0.4 mm 4 mps 749 mmHg 99%
13:00 0°C° 0.4 mm 4 mps 749 mmHg 99%
14:00 +1°C° 0.5 mm 3 mps 749 mmHg 99%
15:00 +1°C° 0.5 mm 3 mps 749 mmHg 99%
16:00 +1°C° 0.5 mm 3 mps 749 mmHg 99%
17:00 +1°C° 0.2 mm 3 mps 749 mmHg 99%
18:00 +2°C° 0.2 mm 2 mps 749 mmHg 99%
19:00 +2°C° 0.2 mm 2 mps 749 mmHg 99%
20:00 +2°C° 0.1 mm 2 mps 749 mmHg 99%
21:00 +2°C° 0.1 mm 2 mps 749 mmHg 99%
22:00 +3°C° 0.1 mm 2 mps 749 mmHg 99%
23:00 +3°C° 0 mm 2 mps 749 mmHg 98%

16 April, Friday

Time Temperature Precipitation Wind Pressure Humidity
00:00 +2°C° 0 mm 3 mps 749 mmHg 98%
01:00 +2°C° 0 mm 3 mps 749 mmHg 98%
02:00 +2°C° 0 mm 3 mps 749 mmHg 98%
03:00 +2°C° 0 mm 3 mps 749 mmHg 98%
04:00 +2°C° 0 mm 3 mps 749 mmHg 98%
05:00 +2°C° 0 mm 3 mps 749 mmHg 98%
06:00 +2°C° 0 mm 3 mps 749 mmHg 98%
07:00 +2°C° 0 mm 3 mps 749 mmHg 98%
08:00 +3°C° 0 mm 3 mps 749 mmHg 97%
09:00 +3°C° 0 mm 3 mps 749 mmHg 97%
10:00 +4°C° 0 mm 3 mps 749 mmHg 96%
11:00 +4°C° 0 mm 3 mps 749 mmHg 95%
12:00 +4°C° 0 mm 4 mps 749 mmHg 93%
13:00 +4°C° 0 mm 4 mps 749 mmHg 92%
14:00 +4°C° 0.1 mm 4 mps 749 mmHg 93%
15:00 +4°C° 0.1 mm 3 mps 749 mmHg 94%
16:00 +3°C° 0.1 mm 3 mps 750 mmHg 95%
17:00 +3°C° 0.2 mm 3 mps 750 mmHg 96%
18:00 +3°C° 0.2 mm 3 mps 750 mmHg 97%
19:00 +3°C° 0.2 mm 3 mps 750 mmHg 98%
20:00 +3°C° 0.4 mm 3 mps 750 mmHg 98%
21:00 +4°C° 0.4 mm 3 mps 750 mmHg 98%
22:00 +4°C° 0.4 mm 3 mps 750 mmHg 98%
23:00 +4°C° 0.4 mm 3 mps 750 mmHg 98%

17 April, Saturday

Time Temperature Precipitation Wind Pressure Humidity
00:00 +5°C° 0.4 mm 3 mps 750 mmHg 98%
01:00 +5°C° 0.4 mm 3 mps 750 mmHg 98%
02:00 +5°C° 0.1 mm 3 mps 750 mmHg 98%
03:00 +7°C° 0.1 mm 3 mps 750 mmHg 98%
04:00 +7°C° 0.1 mm 3 mps 750 mmHg 98%
05:00 +7°C° 0.2 mm 3 mps 750 mmHg 97%
06:00 +7°C° 0.2 mm 3 mps 751 mmHg 97%
07:00 +7°C° 0.2 mm 4 mps 751 mmHg 96%
08:00 +8°C° 0.1 mm 4 mps 751 mmHg 86%
09:00 +11°C° 0.1 mm 4 mps 751 mmHg 75%
10:00 +12°C° 0.1 mm 5 mps 752 mmHg 65%
11:00 +13°C° 0.1 mm 5 mps 752 mmHg 61%
12:00 +13°C° 0.1 mm 5 mps 752 mmHg 58%
13:00 +14°C° 0.1 mm 5 mps 752 mmHg 54%
14:00 +13°C° 0.2 mm 5 mps 752 mmHg 59%
15:00 +13°C° 0.2 mm 4 mps 752 mmHg 63%
16:00 +12°C° 0.2 mm 4 mps 752 mmHg 67%
17:00 +11°C° 0.2 mm 4 mps 752 mmHg 72%
18:00 +10°C° 0.2 mm 3 mps 752 mmHg 77%
19:00 +9°C° 0.2 mm 3 mps 752 mmHg 81%
20:00 +9°C° 0.1 mm 3 mps 753 mmHg 83%
21:00 +9°C° 0.1 mm 3 mps 753 mmHg 85%
22:00 +9°C° 0.1 mm 3 mps 753 mmHg 87%
23:00 +9°C° 0.3 mm 3 mps 753 mmHg 88%

18 April, Sunday

Time Temperature Precipitation Wind Pressure Humidity
00:00 +8°C° 0.3 mm 2 mps 753 mmHg 89%
01:00 +8°C° 0.3 mm 2 mps 753 mmHg 91%
02:00 +9°C° 1 mm 1 mps 753 mmHg 92%
03:00 +9°C° 1 mm 1 mps 753 mmHg 94%
04:00 +9°C° 1 mm 1 mps 752 mmHg 96%
05:00 +8°C° 0.9 mm 2 mps 753 mmHg 96%
06:00 +8°C° 0.9 mm 2 mps 753 mmHg 95%
07:00 +8°C° 0.9 mm 2 mps 753 mmHg 95%
08:00 +8°C° 0.3 mm 2 mps 753 mmHg 93%
09:00 +9°C° 0.3 mm 1 mps 753 mmHg 92%
10:00 +9°C° 0.3 mm 1 mps 753 mmHg 90%
11:00 +10°C° 0.3 mm 1 mps 753 mmHg 90%
12:00 +10°C° 0.3 mm 1 mps 753 mmHg 89%
13:00 +9°C° 0.3 mm 2 mps 753 mmHg 88%
14:00 +9°C° 0.3 mm 2 mps 753 mmHg 88%
15:00 +9°C° 0.3 mm 2 mps 753 mmHg 89%
16:00 +9°C° 0.3 mm 2 mps 753 mmHg 90%
17:00 +9°C° 0.3 mm 2 mps 753 mmHg 91%
18:00 +8°C° 0.3 mm 2 mps 753 mmHg 92%
19:00 +8°C° 0.3 mm 3 mps 754 mmHg 93%
20:00 +7°C° 0 mm 3 mps 754 mmHg 93%
21:00 +7°C° 0 mm 3 mps 754 mmHg 92%
22:00 +5°C° 0 mm 3 mps 754 mmHg 92%
23:00 +5°C° 0 mm 3 mps 754 mmHg 92%
Show more